Regional Weather Roundup
Issued by NWS

Home | Current Version | Previous Version | Graphics & Text | Print | Product List | Glossary On
Versions: 1 2 3 4 5 6 7 8 9 10 11 12 13 14 15 16 17 18 19 20 21 22 23 24 25 26 27 28 29 30 31 32 33 34 35 36 37 38 39 40 41 42 43 44 45 46 47 48 49 50
140
ASUS45 KBOI 211310
RWRID

IDAHO REGIONAL WEATHER ROUNDUP
NATIONAL WEATHER SERVICE BOISE ID
700 AM MDT MON AUG 21 2017

NOTE: "FAIR" INDICATES FEW OR NO CLOUDS BELOW 12000 FEET
WITH NO SIGNIFICANT WEATHER AND/OR OBSTRUCTIONS TO VISIBILITY

IDZ012-014-211400-
SOUTHWEST IDAHO


CITY           SKY/WX    TMP DP  RH WIND       PRES   REMARKS
BOISE          CLEAR     57  40  52 S5        30.07R
CALDWELL       CLEAR     60  39  45 W3        30.07R
MOUNTAIN HOME  CLEAR     56  37  48 CALM      30.06S
$$

IDZ016-017-211400-
SOUTHCENTRAL IDAHO


CITY           SKY/WX    TMP DP  RH WIND       PRES   REMARKS
BURLEY         PTCLDY    50  40  68 CALM      30.12R
JEROME         PTCLDY    57  34  41 S5        30.13R
TWIN FALLS     PTCLDY    59  30  33 S13       30.13R
$$

IDZ019>023-211400-
SOUTHEAST IDAHO


CITY           SKY/WX    TMP DP  RH WIND       PRES   REMARKS
IDAHO FALLS    PTCLDY    50  39  66 SW7       30.16R
POCATELLO      PTCLDY    55  30  38 S5        30.16R
REXBURG        CLOUDY    46  36  68 NE7       30.17R
$$

IDZ006-010-011-018-031-032-211400-
CENTRAL IDAHO MOUNTAINS


CITY           SKY/WX    TMP DP  RH WIND       PRES   REMARKS
MCCALL         CLEAR     46  34  62 CALM      30.18R
HAILEY         PTCLDY    48  34  57 W12       30.20R
STANLEY          N/A     36  28  73 S3        30.29R
SALMON         CLEAR     45  35  68 CALM      30.19R
CHALLIS        CLOUDY    47  36  65 N3        30.20R HAZE
$$

IDZ002-004-006-007-026-211400-
NORTHERN IDAHO


CITY           SKY/WX    TMP DP  RH WIND       PRES   REMARKS
LEWISTON       CLEAR     58  41  53 CALM      30.11R
LOWELL           N/A     50  44  80 CALM      30.18R
COEUR D`ALENE  CLEAR     51  42  71 E3        30.15R
MULLAN PASS    CLEAR     53  33  46 NW3       30.27R
$$




USA.gov is the U.S. government's official web portal to all federal, state and local government web resources and services.